Home   Weather   Larvik   Past weeks

Flag for Norway Past Weather in Larvik, Norway — Yesterday and Last 2 Weeks

Now
28 °F

Clear.


Feels Like: 19 °F
Forecast: 22 / 35 °F
Wind: 10 mph from West

Location: Torp

Current Time: Feb 24, 2017 at 10:55:52 pm

Latest Report: Feb 24, 2017 at 10:20 pm


Visibility: 10 mi

Pressure: 29.74 "Hg

Humidity: 51%

Dew Point: 12 °F

Location of LarvikLocation

Past Weather in Larvik — Graph

°F

Larvik Temperature Yesterday

Maximum temperature yesterday: 37 °F (at 3:50 am)
Minimum temperature yesterday: 27 °F (at 10:20 pm)
Average temperature yesterday: 33 °F

High & Low Weather Summary for the Past Weeks

 TemperatureHumidityPressure
High50 °F (Feb 19, 2:50 pm)100% (Feb 9, 10:20 pm)30.80 "Hg (Feb 9, 10:20 pm)
Low16 °F (Feb 13, 7:20 am)33% (Feb 24, 12:50 pm)28.65 "Hg (Feb 22, 3:20 pm)
Average30 °F87%29.97 "Hg
* Reported Feb 9 9:20 pm — Feb 24 9:20 pm, Larvik, Weather by CustomWeather, © 2017

Note: Actual official high and low records may vary slightly from our data, if they occured in-between our weather recording intervals... More about our weather records

Advertising

Larvik Weather History for the Previous 24 Hours

Scroll right to see more
 ConditionsComfort  
Time TempWeatherWind HumidityBarometerVisibility
9:20 pm
Fri, Feb 24
28 °FClear.10 mph51%29.71 "Hg10 mi
8:50 pm30 °FClear.10 mph47%29.71 "Hg10 mi
8:20 pm30 °FClear.7 mph47%29.71 "Hg10 mi
7:50 pm30 °FClear.7 mph47%29.68 "Hg10 mi
7:20 pm30 °FClear.8 mph47%29.68 "Hg10 mi
6:50 pm30 °FPassing clouds.3 mph47%29.68 "HgN/A
6:20 pm32 °FClear.8 mph40%29.65 "Hg10 mi
5:50 pm34 °FClear.7 mph38%29.62 "Hg10 mi
5:20 pm36 °FSunny.12 mph35%29.62 "Hg10 mi
4:50 pm37 °FSunny.9 mph33%29.59 "Hg10 mi
4:20 pm37 °FSunny.9 mph33%29.59 "Hg10 mi
3:50 pm37 °FPassing clouds.7 mph38%29.59 "HgN/A
3:20 pm37 °FSunny.8 mph38%29.59 "Hg10 mi
2:50 pm39 °FPassing clouds.5 mph36%29.56 "HgN/A
2:20 pm37 °FPassing clouds.9 mph33%29.56 "HgN/A
1:50 pm37 °FSunny.9 mph33%29.56 "Hg10 mi
1:20 pm37 °FSunny.9 mph35%29.56 "Hg10 mi
12:50 pm37 °FPassing clouds.7 mph33%29.56 "HgN/A
12:20 pm36 °FSunny.6 mph35%29.53 "Hg10 mi
11:50 am36 °FPassing clouds.7 mph35%29.53 "HgN/A
11:20 am34 °FPassing clouds.10 mph41%29.53 "HgN/A
10:50 am34 °FSunny.8 mph41%29.50 "Hg10 mi
10:20 am32 °FPassing clouds.8 mph44%29.50 "HgN/A
9:50 am30 °FPassing clouds.5 mph47%29.50 "HgN/A
9:20 am28 °FPassing clouds.3 mph51%29.47 "HgN/A
8:50 am27 °FSunny.3 mph54%29.47 "Hg10 mi
8:20 am25 °FSunny.3 mph54%29.45 "Hg10 mi
7:50 am25 °FSunny.7 mph54%29.45 "Hg10 mi
7:20 am23 °FClear.2 mph58%29.42 "Hg10 mi
6:50 am25 °FClear.2 mph50%29.42 "Hg10 mi
6:20 am25 °FClear.2 mph50%29.39 "Hg10 mi
5:50 am25 °FClear.3 mph54%29.39 "Hg10 mi
5:20 am25 °FCold.5 mph54%29.36 "HgN/A
4:50 am25 °FCold.5 mph54%29.36 "HgN/A
4:20 am25 °FCold.3 mph54%29.33 "HgN/A
3:50 am25 °FCold.6 mph54%29.33 "HgN/A
3:20 am27 °FChilly.7 mph50%29.30 "HgN/A
2:50 am27 °FChilly.8 mph50%29.30 "HgN/A
2:20 am27 °FChilly.8 mph50%29.27 "HgN/A
1:50 am27 °FChilly.9 mph50%29.27 "HgN/A
1:20 am27 °FChilly.10 mph50%29.27 "HgN/A
12:50 am27 °FChilly.9 mph50%29.24 "HgN/A
12:20 am27 °FChilly.9 mph50%29.24 "HgN/A
11:50 pm
Thu, Feb 23
27 °FClear.9 mph50%29.21 "Hg10 mi
11:20 pm27 °FClear.6 mph50%29.21 "Hg10 mi
10:50 pm27 °FClear.6 mph54%29.21 "Hg10 mi
10:20 pm27 °FClear.5 mph59%29.21 "Hg10 mi
Weather by CustomWeather, © 2017

See weather overviewHow to use our weather pages